Temperature
7 9 8 8 8 9 9 9 9 9 8 7 8 8 8 6 6 6 6 5 5 4 4 5 5 5 5 5 5 6 6 6 6 6 6 6 6 6 6 7 7 7 7 7
8 8 7 7 8 8 8 8 8 8 7 7 7 7 8 6 6 5 5 5 4 4 4 4 4 5 5 5 5 5 5 5 5 6 6 6 6 6 6 6 6 6 6 6
7 7 7 7 7 7 7 8 8 7 7 6 6 8 8 7 5 4 4 4 3 3 3 3 3 4 4 5 5 5 5 5 5 5 5 5 5 5 5 5 6 6 6 6
7 6 6 6 6 7 7 7 7 6 7 8 7 8 8 7 5 5 4 3 3 2 2 3 3 3 4 4 4 4 4 4 4 4 5 5 5 5 5 5 5 5 5 5
6 5 5 6 6 6 6 6 6 6 6 6 7 6 8 6 5 5 4 3 3 2 2 2 2 3 3 3 4 4 3 4 4 4 4 4 4 4 4 4 5 5 5 5
5 5 5 5 5 5 5 5 5 5 6 6 7 7 8 7 6 6 4 3 2 2 2 2 2 2 2 3 3 3 3 3 3 3 3 4 4 4 4 4 4 4 4 4
5 5 4 4 5 5 5 6 7 7 6 7 5 5 7 6 5 4 4 3 2 1 1 1 2 2 2 2 2 2 2 3 3 3 3 3 3 3 3 3 3 4 4 4
5 6 5 4 4 4 5 5 6 7 7 8 5 6 7 4 3 2 2 1 1 1 1 1 1 1 1 1 2 2 2 2 2 2 2 2 2 2 3 3 3 3 3 3
5 5 4 3 3 4 4 5 5 5 4 5 6 6 5 3 3 2 2 1 0 0 0 0 0 1 1 1 1 1 2 2 2 2 2 2 2 2 2 2 2 2 3 3
3 3 4 3 3 3 4 4 4 5 5 6 6 6 6 4 4 3 2 1 0 -0 -0 -0 -0 -0 0 0 0 1 1 1 1 1 1 1 1 1 2 2 2 2 2 2
3 3 3 3 3 3 3 3 3 4 4 5 6 7 5 4 3 3 2 0 -0 -1 -1 -0 -0 -0 -0 -0 -0 0 0 0 1 1 1 1 1 1 1 1 1 1 2 2
2 3 3 3 2 1 2 3 3 4 3 3 4 6 3 2 2 1 1 -0 -1 -1 -1 -1 -1 -1 -1 -1 -1 -0 -0 -0 -0 0 0 0 1 1 1 1 1 1 1 1
1 1 3 3 2 1 1 1 1 1 2 3 4 5 2 1 1 0 -0 -1 -1 -2 -2 -1 -1 -1 -1 -1 -1 -1 -1 -1 -1 -1 -1 -0 -0 0 0 0 0 0 1 1
1 1 2 4 4 2 1 1 0 0 2 2 3 4 3 2 1 0 -1 -1 -2 -2 -2 -2 -2 -2 -2 -2 -2 -1 -1 -1 -1 -1 -1 -1 -1 -1 -0 -0 -0 0 0 0
1 1 0 1 1 1 1 0 -0 -0 1 2 3 2 2 2 1 -1 -2 -2 -3 -3 -3 -3 -3 -3 -3 -3 -2 -2 -2 -2 -2 -2 -2 -2 -1 -1 -1 -1 -1 -0 -0 -0
-1 -0 -1 -1 -0 -0 -1 -0 -0 -0 -0 0 1 1 1 -0 -2 -2 -3 -3 -3 -3 -3 -3 -3 -3 -3 -3 -3 -3 -2 -2 -2 -2 -2 -2 -2 -2 -2 -2 -1 -1 -1 -1
-1 -1 -1 1 -1 -1 0 0 -1 -1 -1 -1 0 1 -0 -1 -2 -3 -4 -4 -4 -4 -4 -4 -4 -4 -3 -3 -3 -3 -3 -3 -3 -3 -3 -3 -3 -2 -2 -2 -2 -2 -2 -1
-2 -2 -1 -0 -1 -0 2 -1 -1 -1 -2 -2 -1 -1 -2 -2 -3 -4 -4 -4 -4 -4 -4 -4 -4 -4 -4 -4 -4 -4 -4 -3 -3 -3 -3 -3 -3 -3 -3 -3 -3 -2 -2 -2
-3 -2 -1 -1 -0 1 1 -1 -2 -2 -2 -2 -3 -2 -3 -4 -4 -3 -4 -4 -4 -5 -5 -5 -4 -4 -4 -4 -4 -4 -4 -4 -4 -4 -3 -3 -3 -3 -3 -3 -3 -3 -3 -3
-4 -3 -2 -1 -1 0 1 -2 -4 -3 -1 -2 -4 -4 -4 -4 -2 -2 -4 -5 -5 -5 -5 -5 -5 -5 -5 -5 -5 -5 -5 -4 -4 -4 -4 -4 -4 -4 -4 -4 -4 -4 -4 -4
-3 -3 -2 -2 -1 0 -1 -4 -4 -1 -0 -3 -4 -5 -5 -5 -4 -5 -5 -6 -6 -6 -6 -6 -5 -5 -5 -5 -5 -5 -5 -5 -5 -5 -5 -4 -5 -5 -5 -5 -5 -5 -5 -5
-2 -2 -3 -2 -2 -0 -4 -4 -3 -2 -4 -4 -5 -5 -5 -5 -6 -6 -6 -6 -6 -6 -6 -6 -6 -6 -6 -6 -6 -6 -6 -5 -5 -5 -5 -5 -5 -5 -5 -5 -5 -5 -6 -6
-3 -2 -1 -2 -1 -3 -5 -4 -4 -4 -5 -5 -5 -6 -6 -6 -6 -7 -7 -7 -7 -7 -7 -7 -7 -6 -6 -7 -7 -6 -6 -6 -6 -6 -6 -6 -6 -6 -6 -6 -6 -6 -6 -6
-4 -6 -4 -4 -3 -4 -5 -5 -5 -5 -5 -5 -6 -6 -7 -7 -7 -7 -7 -7 -7 -7 -7 -7 -7 -7 -7 -7 -7 -7 -7 -7 -7 -7 -7 -7 -7 -7 -7 -7 -7 -7 -7 -7
-4 -6 -5 -5 -4 -5 -6 -5 -5 -6 -6 -6 -6 -6 -7 -7 -7 -8 -8 -8 -8 -8 -8 -8 -8 -8 -8 -8 -8 -8 -8 -8 -7 -7 -7 -7 -7 -7 -7 -7 -7 -7 -7 -7
-6 -6 -5 -4 -5 -5 -5 -5 -6 -6 -6 -7 -7 -7 -7 -7 -8 -8 -8 -8 -8 -8 -8 -8 -8 -8 -8 -8 -8 -8 -8 -8 -8 -8 -8 -8 -8 -8 -8 -8 -8 -8 -8 -8
Wind_Speed
1 2 4 6 7 6 6 7 8 7 3 5 9 11 9 7 6 7 6 5 5 5 4 3 3 3 3 3 3 3 3 2 2 2 3 2 2 2 2 2 4 4 4 4
2 4 6 5 5 6 6 7 8 6 3 5 8 11 9 7 7 6 5 4 4 4 3 2 2 2 3 3 3 4 4 4 4 3 3 2 2 2 1 2 3 4 4 4
4 2 3 4 4 6 7 8 8 7 4 5 6 9 8 6 4 4 4 4 3 4 4 3 2 2 3 3 4 4 4 4 4 3 2 2 1 1 2 2 2 3 4 4
2 2 2 4 5 6 7 5 7 7 6 5 4 7 6 5 5 5 5 4 3 3 3 3 3 3 3 3 3 4 4 4 4 4 4 5 4 4 4 3 3 3 4 4
2 1 2 4 5 6 5 3 4 6 7 7 6 7 6 4 5 6 6 5 3 3 3 3 3 3 3 3 3 3 4 4 4 4 5 5 5 3 3 3 4 4 3 4
2 1 2 3 2 3 2 1 2 3 4 7 8 8 7 5 6 5 4 4 2 2 2 2 2 1 2 2 2 2 3 3 4 4 5 6 6 5 4 4 4 4 3 3
2 1 1 1 1 1 2 2 3 3 5 6 3 7 7 2 3 4 4 3 2 1 1 2 2 2 2 2 2 3 3 3 4 4 5 5 6 6 6 5 5 5 4 3
3 3 1 1 2 3 4 5 4 4 5 4 3 7 3 1 2 3 3 2 2 2 2 2 3 2 2 2 2 3 4 4 4 5 5 5 5 4 4 5 4 5 5 4
3 3 1 1 2 2 3 4 3 3 4 6 6 5 4 2 3 2 2 2 2 3 3 3 3 3 3 3 3 3 4 4 4 4 5 5 5 5 5 5 5 5 4 4
2 4 3 2 1 1 2 2 2 4 4 6 6 6 5 4 4 3 2 2 3 3 4 4 4 3 3 3 3 3 3 4 4 4 4 4 5 5 5 5 6 6 5 5
2 3 3 2 3 4 3 3 3 4 4 5 6 4 1 3 3 3 3 3 4 4 5 5 4 4 3 3 3 2 3 3 3 4 4 4 5 5 5 5 6 6 5 6
2 3 4 4 1 2 4 4 5 5 5 5 6 5 2 1 2 3 4 4 5 5 4 4 4 4 3 3 3 3 3 3 4 4 4 4 4 5 5 6 6 6 6 6
2 2 3 3 2 2 3 4 4 3 4 6 7 6 1 2 4 5 6 6 5 5 4 4 4 4 3 3 3 3 3 3 3 4 4 4 4 4 5 6 6 6 6 6
2 4 6 8 6 3 6 6 6 6 6 9 11 12 9 7 8 8 7 7 6 6 5 5 4 4 4 4 3 3 3 3 3 3 3 4 4 5 5 5 6 6 6 7
3 5 6 9 9 8 10 11 10 12 12 12 13 13 15 11 9 8 7 6 6 6 6 6 5 4 4 4 4 4 4 3 3 3 4 5 5 5 5 5 5 6 6 6
2 4 4 8 8 8 11 14 14 15 14 15 16 17 12 8 6 6 7 6 7 7 7 6 6 5 5 4 4 4 4 4 3 4 5 4 4 5 5 5 5 5 6 6
4 4 4 6 4 6 10 11 12 9 10 11 14 12 6 6 7 7 7 6 7 8 7 7 6 6 5 5 4 5 4 4 4 4 4 4 4 4 5 4 5 5 6 6
6 5 4 4 3 8 5 1 6 9 11 11 11 9 8 7 8 7 6 6 7 7 7 7 6 6 5 4 4 4 3 4 4 4 4 4 4 4 4 4 5 5 4 5
7 6 4 4 6 9 7 3 4 6 8 7 9 9 7 5 6 6 4 4 6 6 6 6 6 5 5 4 3 3 3 3 4 4 4 4 4 4 4 4 5 4 4 4
3 5 5 4 5 7 4 1 1 3 6 3 5 7 6 4 6 5 3 4 5 5 4 5 4 4 4 3 3 3 3 3 4 5 4 4 4 4 4 4 4 4 4 4
4 4 7 8 7 8 2 2 3 4 3 1 3 5 4 5 6 6 5 5 5 5 5 4 4 3 3 3 3 3 4 4 5 4 4 4 3 3 3 3 3 3 3 3
7 6 7 6 7 7 3 5 5 4 2 2 3 4 5 6 6 5 5 5 5 5 5 4 3 4 3 3 2 4 4 5 4 3 3 3 3 3 2 3 3 3 3 4
7 6 5 7 6 2 4 5 3 2 3 4 4 5 5 6 6 6 5 5 5 5 5 4 3 4 3 3 3 4 5 4 3 3 2 2 2 2 2 2 3 3 3 3
4 3 4 6 8 6 5 5 4 4 4 5 5 5 5 6 6 6 5 5 5 4 4 4 3 4 4 4 4 4 4 3 2 2 2 2 1 2 1 1 2 2 3 3
5 5 5 7 8 5 5 6 6 6 5 5 5 5 5 6 6 5 5 5 4 4 4 3 3 4 5 4 4 4 3 2 2 2 2 2 1 1 1 2 2 2 3 3
5 6 7 7 4 4 5 3 3 5 6 6 5 5 5 5 5 5 5 5 4 4 4 4 4 4 5 4 4 4 3 2 2 2 2 1 1 1 1 1 1 2 1 2
Wind_Direction
158 192 220 228 226 243 244 243 254 258 241 240 244 255 262 262 245 242 242 238 233 234 236 227 220 210 191 184 188 189 185 184 171 166 167 179 195 185 161 156 147 144 144 143
187 232 250 243 226 226 236 245 257 263 242 248 261 262 261 254 247 244 242 234 235 240 238 232 225 209 202 195 196 200 200 190 188 184 181 191 193 210 186 170 163 159 157 153
208 290 259 218 219 226 240 245 254 266 279 243 269 262 245 237 233 232 235 237 242 250 251 238 227 224 221 215 213 211 210 201 195 181 152 152 165 176 186 201 188 184 174 165
239 289 244 227 237 241 251 252 254 261 261 256 238 268 246 226 230 237 237 234 240 253 258 250 233 230 233 235 229 223 217 207 193 179 169 172 198 210 212 207 207 193 182 180
240 283 257 248 253 239 252 276 258 257 251 259 234 250 260 192 232 236 232 237 244 252 253 249 249 243 237 233 227 222 217 208 195 185 179 185 208 222 220 197 202 192 191 194
268 272 273 268 274 233 228 256 250 240 239 247 236 230 257 209 224 233 233 236 244 260 264 258 259 266 249 232 222 220 217 213 203 197 192 192 204 209 209 200 207 203 195 195
285 250 266 267 250 191 221 228 246 234 229 244 195 226 250 220 222 228 242 240 243 264 281 278 280 281 281 262 236 220 218 226 220 210 205 202 205 204 210 212 211 209 202 205
270 271 238 259 242 239 219 226 240 255 257 269 213 236 246 164 260 255 240 242 273 280 289 294 287 275 272 267 258 236 222 225 226 222 216 213 210 207 218 215 214 217 212 211
261 266 334 316 292 230 212 220 261 273 281 269 247 255 270 216 256 260 259 245 283 308 311 304 304 298 281 269 259 243 234 231 231 229 221 217 215 213 221 221 221 221 217 213
251 268 278 297 225 198 256 200 203 231 258 261 263 254 257 235 244 257 276 285 300 313 318 317 314 303 291 278 265 250 236 239 244 238 231 224 221 222 225 222 224 220 214 209
232 249 271 246 225 234 197 198 222 234 253 260 270 266 299 237 247 258 274 297 304 309 312 310 303 299 299 294 277 250 241 245 249 245 239 236 231 226 226 225 224 219 215 208
216 239 259 255 260 283 243 228 215 237 242 243 266 270 71 253 293 295 295 300 306 304 302 300 294 295 292 285 279 263 252 250 254 249 242 240 239 232 229 228 228 221 218 215
183 212 267 257 212 202 229 226 223 243 249 240 248 262 102 298 304 301 297 299 304 304 302 300 295 290 288 279 272 270 264 255 255 251 247 248 243 239 236 231 228 225 221 220
201 222 236 254 281 260 255 245 225 219 235 248 248 265 273 278 286 293 296 297 297 298 295 290 288 290 290 284 276 269 273 272 258 254 255 257 254 244 239 234 228 225 223 221
208 241 245 261 271 267 262 257 239 230 239 249 261 265 273 276 280 286 290 293 294 294 294 290 285 286 288 290 289 281 279 278 267 259 259 261 263 254 244 238 231 226 224 223
225 246 259 267 266 267 268 260 248 243 245 251 263 271 276 283 285 285 288 289 288 291 293 289 288 287 283 286 289 287 285 285 276 259 259 264 266 254 244 240 233 226 223 222
214 211 240 267 289 286 266 249 232 230 231 235 250 262 284 284 282 282 286 284 284 289 291 289 286 284 284 284 284 281 282 282 273 267 265 262 261 259 249 242 233 229 225 221
214 216 236 269 280 250 265 188 224 238 251 242 249 265 272 278 287 283 274 275 286 292 291 290 289 288 291 291 289 287 282 272 270 271 272 266 258 261 257 242 235 234 231 223
217 209 218 230 253 270 273 233 213 230 267 242 242 263 275 294 295 275 262 278 279 285 290 290 288 288 290 287 288 284 273 271 271 273 275 275 261 253 251 242 239 237 229 230
195 211 218 220 241 257 281 174 201 225 264 236 233 261 276 287 280 292 336 314 301 302 305 306 306 302 296 298 296 275 270 271 273 278 279 277 269 259 248 244 239 235 226 227
182 199 217 229 242 262 278 150 172 227 281 4 253 265 263 252 269 304 313 310 308 309 312 312 307 300 297 299 291 279 281 278 284 288 281 273 268 261 253 250 238 223 220 220
198 199 207 211 226 250 152 155 206 259 335 289 282 271 263 264 287 295 296 301 309 314 317 316 306 303 309 302 285 281 283 292 298 291 274 266 268 266 254 242 233 215 205 208
217 218 215 210 232 292 173 201 237 292 279 285 287 282 271 273 280 285 288 292 301 307 310 312 304 306 312 305 285 279 292 303 301 290 277 272 270 268 260 237 222 213 204 206
231 228 228 248 259 259 247 252 264 257 259 277 285 282 272 269 273 278 283 288 296 300 303 306 305 302 304 305 297 288 294 293 285 281 284 285 272 276 277 250 226 214 207 206
240 201 228 252 270 285 260 244 256 265 276 283 285 277 269 265 270 274 280 285 289 293 296 295 289 289 293 300 300 300 294 284 276 279 281 280 279 281 285 278 261 246 245 227
222 213 223 248 248 245 273 292 278 270 272 274 280 286 280 264 266 272 275 279 283 286 292 290 289 289 293 297 297 297 291 275 262 268 274 267 260 263 266 284 334 340 281 276
Height
1497 1498 1496 1496 1497 1496 1494 1494 1493 1494 1498 1499 1495 1493 1493 1495 1495 1494 1494 1494 1495 1495 1495 1496 1497 1498 1499 1500 1501 1502 1504 1505 1507 1508 1509 1512 1513 1515 1516 1518 1520 1522 1523 1525
1497 1497 1498 1498 1498 1497 1496 1494 1492 1494 1498 1498 1494 1490 1490 1491 1492 1492 1492 1492 1492 1493 1493 1493 1494 1494 1495 1496 1497 1499 1500 1502 1503 1505 1506 1508 1510 1511 1513 1515 1517 1519 1521 1522
1495 1498 1498 1498 1497 1496 1495 1494 1493 1494 1496 1497 1495 1484 1484 1487 1490 1490 1490 1490 1490 1490 1490 1490 1490 1491 1492 1492 1493 1495 1496 1498 1500 1502 1503 1506 1508 1508 1510 1511 1513 1516 1518 1520
1497 1499 1499 1497 1497 1496 1492 1495 1495 1495 1494 1488 1492 1480 1477 1483 1487 1487 1488 1488 1488 1488 1488 1488 1488 1488 1488 1489 1490 1492 1493 1494 1496 1498 1499 1501 1502 1503 1505 1507 1510 1512 1514 1516
1497 1499 1498 1497 1497 1497 1495 1496 1496 1495 1493 1490 1488 1487 1472 1482 1482 1483 1485 1485 1485 1486 1486 1486 1485 1485 1486 1486 1487 1488 1490 1491 1492 1494 1496 1498 1500 1501 1502 1504 1506 1508 1511 1513
1499 1501 1500 1498 1498 1498 1498 1497 1496 1494 1491 1487 1482 1483 1468 1474 1477 1479 1482 1483 1483 1484 1484 1484 1484 1484 1484 1484 1484 1485 1486 1487 1489 1490 1492 1494 1496 1497 1499 1500 1502 1504 1506 1508
1497 1498 1499 1500 1497 1498 1497 1494 1487 1484 1482 1473 1484 1482 1470 1474 1478 1478 1480 1481 1482 1482 1482 1482 1481 1481 1481 1481 1481 1482 1483 1483 1485 1486 1488 1490 1492 1494 1495 1496 1498 1500 1502 1504
1496 1493 1497 1499 1497 1496 1496 1493 1487 1480 1472 1469 1484 1476 1469 1478 1478 1479 1479 1479 1480 1480 1480 1479 1479 1478 1478 1478 1478 1479 1479 1480 1481 1483 1484 1486 1488 1490 1491 1493 1494 1496 1498 1500
1496 1494 1499 1499 1499 1498 1496 1493 1494 1491 1490 1484 1470 1471 1474 1477 1477 1477 1477 1478 1478 1478 1478 1477 1476 1476 1475 1475 1475 1475 1476 1477 1478 1479 1481 1483 1484 1486 1487 1489 1491 1492 1494 1496
1503 1500 1498 1500 1500 1499 1498 1496 1495 1491 1484 1473 1466 1469 1464 1470 1472 1475 1476 1476 1476 1476 1476 1475 1474 1473 1473 1472 1472 1473 1473 1474 1475 1476 1478 1479 1481 1482 1484 1485 1486 1488 1490 1492
1504 1502 1498 1499 1497 1494 1498 1498 1494 1490 1489 1478 1468 1463 1468 1470 1472 1474 1475 1475 1475 1475 1473 1472 1472 1471 1470 1469 1469 1469 1470 1470 1471 1472 1474 1475 1476 1478 1479 1480 1481 1483 1485 1487
1504 1501 1496 1496 1499 1500 1498 1495 1494 1490 1488 1488 1478 1469 1473 1473 1474 1475 1475 1475 1474 1473 1472 1471 1470 1468 1467 1467 1466 1466 1466 1467 1468 1469 1470 1471 1471 1473 1474 1475 1477 1478 1480 1482
1504 1503 1495 1489 1497 1501 1498 1497 1497 1496 1492 1486 1478 1469 1474 1474 1474 1474 1474 1473 1473 1471 1470 1469 1468 1466 1465 1464 1463 1463 1463 1463 1464 1465 1465 1466 1467 1468 1469 1470 1472 1474 1475 1477
1502 1501 1496 1487 1483 1490 1493 1495 1497 1496 1488 1480 1475 1468 1470 1472 1473 1473 1473 1472 1471 1470 1468 1467 1465 1464 1463 1462 1460 1460 1459 1460 1460 1461 1460 1461 1462 1463 1464 1465 1467 1468 1470 1472
1501 1498 1497 1494 1492 1493 1491 1490 1492 1492 1484 1479 1470 1471 1467 1469 1471 1471 1471 1469 1468 1467 1465 1464 1462 1461 1459 1458 1457 1456 1456 1456 1456 1456 1456 1457 1458 1459 1459 1460 1461 1463 1465 1466
1501 1499 1499 1495 1492 1492 1489 1485 1485 1485 1483 1479 1475 1471 1467 1469 1470 1469 1468 1467 1465 1463 1462 1460 1459 1457 1456 1455 1454 1453 1452 1452 1452 1452 1452 1453 1453 1454 1455 1455 1456 1458 1459 1461
1499 1499 1496 1486 1492 1491 1479 1476 1477 1478 1476 1475 1470 1465 1466 1466 1466 1466 1465 1464 1462 1460 1459 1457 1455 1454 1453 1451 1451 1450 1449 1449 1449 1448 1448 1448 1448 1449 1450 1450 1451 1452 1453 1455
1498 1497 1495 1489 1491 1483 1468 1475 1474 1474 1472 1471 1468 1466 1466 1465 1464 1463 1462 1461 1459 1457 1456 1454 1452 1451 1449 1448 1447 1446 1446 1445 1445 1444 1444 1444 1444 1444 1445 1445 1446 1447 1448 1449
1494 1494 1492 1489 1482 1470 1467 1472 1473 1473 1468 1467 1466 1465 1464 1464 1462 1459 1459 1458 1456 1455 1453 1451 1450 1448 1447 1445 1444 1443 1443 1442 1441 1441 1440 1440 1440 1440 1440 1440 1441 1442 1443 1444
1493 1493 1490 1487 1480 1470 1462 1471 1472 1473 1464 1463 1464 1463 1463 1463 1459 1456 1456 1455 1453 1452 1450 1448 1447 1445 1444 1443 1442 1441 1440 1439 1438 1437 1436 1437 1436 1436 1436 1437 1437 1438 1439 1440
1490 1490 1488 1483 1478 1466 1467 1470 1472 1467 1459 1462 1461 1461 1461 1460 1458 1457 1454 1452 1451 1449 1447 1446 1444 1443 1441 1440 1439 1437 1436 1435 1435 1434 1433 1433 1433 1432 1432 1433 1433 1434 1434 1436
1480 1480 1482 1479 1475 1466 1467 1468 1467 1461 1461 1460 1459 1458 1458 1456 1455 1453 1451 1450 1448 1446 1444 1443 1441 1440 1439 1438 1436 1434 1433 1432 1432 1431 1430 1429 1429 1429 1429 1429 1429 1430 1431 1432
1476 1473 1469 1470 1465 1463 1463 1462 1461 1461 1460 1458 1457 1456 1455 1453 1452 1450 1448 1447 1445 1443 1442 1440 1439 1437 1436 1435 1434 1432 1431 1429 1428 1427 1427 1426 1426 1426 1426 1426 1426 1427 1427 1428
1472 1473 1471 1469 1462 1461 1461 1460 1459 1458 1457 1456 1455 1453 1452 1450 1449 1447 1446 1444 1442 1441 1439 1438 1436 1435 1433 1432 1431 1429 1428 1426 1425 1424 1424 1423 1423 1423 1423 1423 1423 1423 1424 1424
1467 1470 1468 1465 1460 1459 1456 1456 1456 1455 1454 1453 1452 1450 1449 1447 1446 1445 1443 1441 1440 1438 1436 1435 1433 1432 1431 1429 1428 1427 1425 1424 1422 1422 1421 1421 1420 1420 1420 1420 1420 1420 1421 1422
1464 1464 1463 1456 1456 1457 1454 1453 1453 1451 1450 1449 1448 1446 1445 1444 1442 1441 1440 1438 1437 1435 1434 1432 1431 1429 1428 1427 1425 1424 1423 1422 1420 1419 1419 1418 1418 1418 1418 1418 1418 1418 1419 1419